Wind_Speed
8 7 6 4 4 2 1 2 3 5 6 7 8 9 10 11 12 12 12 13 14 14 13 13 13 12 12 13 13 12 12 12 11 11 12 12 13 13 14 14 14 14 15 15 14 15 15 14 14
8 7 6 4 3 2 0 2 3 5 6 7 8 9 11 12 12 12 13 14 15 16 14 13 13 13 13 13 14 14 13 13 13 12 13 13 14 14 14 15 15 16 16 16 16 16 16 15 15
9 8 7 5 3 2 1 2 3 5 6 8 9 10 12 12 13 14 14 14 16 16 15 14 14 14 14 14 14 14 14 13 13 13 14 14 15 15 15 16 17 17 17 17 17 17 17 17 16
9 8 7 5 3 2 3 4 4 5 6 8 10 10 12 13 15 16 16 17 17 16 14 14 15 15 15 15 15 15 15 14 14 14 15 15 15 15 16 16 17 17 18 18 18 18 18 18 18
9 8 7 5 4 3 3 5 6 7 8 9 11 11 12 14 15 16 16 17 17 17 16 16 16 16 16 16 15 16 16 16 16 15 15 15 16 16 17 18 18 18 19 19 19 19 19 19 19
10 9 8 6 5 4 5 6 8 8 9 10 12 14 14 15 15 16 16 18 18 18 18 17 17 16 16 16 16 16 16 16 16 16 16 16 17 17 18 18 19 19 20 21 20 19 19 19 19
10 9 8 7 6 5 6 8 9 10 10 12 14 15 15 15 15 15 16 17 18 18 18 18 17 17 17 18 17 17 17 17 18 18 18 18 18 18 18 18 19 19 20 20 20 19 20 19 19
9 9 9 8 6 6 7 8 10 11 11 13 14 15 15 15 16 17 17 18 19 19 18 18 18 18 18 19 19 18 18 18 18 19 19 20 19 19 19 19 20 20 19 20 20 20 21 20 20
9 9 8 7 7 7 7 9 10 11 12 14 15 16 16 17 18 18 19 19 19 19 19 19 19 18 19 19 19 19 19 19 19 20 21 22 21 20 20 20 20 21 21 21 21 21 22 21 21
9 9 8 8 8 8 8 9 11 11 13 15 16 16 16 17 18 19 20 20 20 19 19 20 19 19 19 19 20 20 21 20 20 22 22 23 22 21 21 21 21 21 22 22 22 22 22 22 22
8 8 8 9 9 9 9 10 11 13 14 15 16 17 17 18 19 19 20 20 20 20 20 20 21 21 21 21 21 21 22 22 22 22 23 23 22 22 21 21 22 22 23 23 23 23 23 23 24
8 8 8 9 10 10 11 11 12 13 15 16 16 18 19 19 19 19 19 19 20 21 21 22 22 22 22 23 23 23 23 23 23 23 23 23 23 23 22 22 23 23 23 23 23 23 23 23 23
8 8 9 10 11 12 12 13 14 15 16 17 18 19 20 21 21 20 21 21 22 23 23 23 22 23 23 24 24 24 24 24 23 23 23 23 24 23 23 22 23 23 23 23 23 24 24 23 23
9 9 10 11 12 13 14 14 15 17 18 19 19 20 22 23 23 22 22 23 24 24 24 24 23 23 24 24 24 25 25 25 25 24 23 24 24 23 23 23 24 24 23 23 24 24 23 24 24
9 10 11 12 13 14 15 15 16 18 19 20 20 21 22 23 24 24 24 24 25 26 25 25 24 25 25 26 26 26 25 25 26 26 25 24 24 25 24 25 25 25 25 25 24 23 23 23 24
10 11 12 13 14 15 17 17 18 19 20 21 21 22 23 24 25 25 26 26 26 27 27 26 26 27 26 27 28 27 27 26 27 27 27 26 26 26 25 26 25 25 26 25 24 24 24 24 24
11 12 13 14 15 17 18 19 20 20 20 21 22 24 25 25 26 26 26 27 27 28 27 27 27 27 28 28 27 27 27 27 27 27 28 28 27 27 26 26 26 25 26 25 24 24 24 25 25
13 13 14 16 17 18 18 20 20 20 21 22 23 24 25 25 26 26 26 27 27 27 27 28 29 29 28 28 29 28 28 28 28 28 28 28 27 26 25 26 25 25 25 24 24 24 24 25 25
14 15 16 17 18 19 19 20 20 21 21 22 23 24 25 26 27 27 28 28 28 27 28 28 28 29 30 29 28 28 29 28 28 28 28 28 27 27 26 25 26 25 25 24 25 24 25 25 25
16 17 18 18 20 20 20 20 21 21 22 22 23 25 25 26 27 28 29 29 29 29 29 29 29 30 29 28 28 28 29 29 28 28 28 28 27 27 26 26 26 25 24 24 25 25 25 25 25
17 18 19 21 21 20 21 22 21 22 23 24 25 26 27 27 27 28 28 28 29 29 29 29 29 29 29 28 28 28 30 30 30 30 29 27 27 26 26 26 25 24 24 24 25 25 26 26 26
18 18 20 20 21 21 21 23 22 23 24 25 26 26 27 27 27 27 28 28 29 29 29 29 29 29 29 29 30 29 29 29 29 28 27 27 27 26 24 24 24 24 24 24 24 24 25 26 25
19 19 20 21 21 21 21 23 23 24 24 25 25 26 27 27 28 28 29 29 29 29 29 29 29 28 29 29 29 29 29 28 27 27 27 27 26 25 24 23 23 24 24 24 24 24 25 24 24
20 20 21 21 22 22 22 23 23 23 24 24 25 26 27 28 28 28 29 29 29 29 29 29 29 29 29 29 28 28 28 27 26 26 26 25 24 24 23 23 23 23 23 23 23 24 24 24 24
21 21 22 23 22 22 23 23 23 23 24 25 25 26 27 28 27 28 29 29 29 28 29 29 29 28 28 28 28 27 27 25 24 24 24 22 23 23 22 22 23 23 23 23 24 24 24 24 24
21 22 23 24 24 23 23 23 24 25 25 26 26 27 27 27 27 28 28 29 29 29 29 30 29 29 28 28 27 26 25 24 24 22 22 21 21 21 22 22 22 23 22 23 23 23 24 24 25
22 22 22 23 24 24 23 24 24 24 25 26 26 27 27 27 27 28 28 29 29 30 30 29 29 28 28 29 28 26 25 25 23 21 20 20 20 20 20 21 22 22 22 22 22 21 22 23 24
22 22 22 22 24 24 24 24 23 23 24 25 26 27 27 28 28 28 29 29 29 29 30 29 29 28 27 27 27 26 26 24 22 20 20 19 19 20 21 21 21 21 21 21 20 21 21 22 23
21 21 21 22 23 25 25 23 23 23 24 26 27 27 28 28 27 28 28 29 30 30 29 29 29 28 26 25 25 25 24 23 21 19 19 18 18 20 20 19 20 20 19 19 19 20 20 21 21
20 20 21 21 22 23 24 23 23 24 25 26 27 27 27 27 27 28 29 29 29 29 28 27 27 27 26 24 24 23 21 20 20 20 18 17 18 18 18 18 18 18 18 18 19 20 21 21 21
Wind_Direction
174 173 167 163 163 162 136 86 50 32 24 16 9 6 358 352 351 348 343 342 340 335 334 331 330 330 330 327 328 329 329 329 327 324 320 318 314 310 307 306 305 303 301 299 298 297 294 293 292
186 188 186 186 186 199 166 61 22 11 9 4 356 354 346 344 344 339 338 336 334 331 329 328 329 329 329 327 326 326 326 325 323 322 320 318 315 311 306 304 302 299 297 295 293 292 290 288 287
196 199 201 204 214 258 295 333 344 353 353 348 345 341 339 338 336 333 334 336 334 332 327 325 326 327 328 327 326 324 324 323 321 320 319 316 314 309 305 303 300 297 295 293 291 290 288 287 285
205 210 214 222 243 285 316 320 322 335 335 330 331 331 334 333 333 333 331 331 332 331 328 327 328 327 326 325 323 320 319 318 315 314 315 313 311 307 304 303 301 297 295 293 291 289 287 285 284
211 218 228 239 261 289 313 320 322 331 326 327 327 327 328 326 328 329 330 328 329 328 327 326 326 327 325 322 320 316 315 315 313 311 311 310 308 305 303 302 300 297 295 292 290 286 284 283 282
215 227 233 248 264 289 307 315 314 315 318 322 326 325 325 324 324 324 325 324 324 324 324 324 325 325 322 319 317 315 313 312 310 309 308 307 306 303 302 299 296 295 295 293 289 285 283 283 281
222 234 242 254 272 286 299 309 307 307 310 317 322 325 325 321 322 322 324 325 324 321 320 319 318 319 317 314 313 313 312 312 310 307 305 304 304 301 298 296 294 294 294 292 290 288 285 283 281
231 243 254 264 274 284 293 297 300 306 313 317 320 323 323 320 319 321 322 322 322 320 319 317 316 316 314 312 311 311 309 307 309 307 306 303 301 300 295 293 291 292 290 290 288 288 288 284 282
238 248 260 269 273 279 287 292 299 305 313 318 319 320 320 320 319 319 320 318 318 318 318 317 314 313 312 311 309 309 307 304 305 306 305 303 300 298 294 291 288 288 288 289 287 286 286 285 283
241 252 264 274 282 288 288 289 296 302 309 312 314 317 318 317 316 317 318 316 316 318 318 317 313 311 310 310 308 306 303 302 303 302 302 302 298 295 292 289 287 286 287 287 286 284 283 283 282
245 259 269 276 282 292 295 295 297 298 302 307 311 314 314 314 316 317 317 316 316 316 316 314 310 310 309 307 305 303 303 301 300 300 298 299 298 293 290 289 288 285 284 284 284 284 284 283 281
248 261 269 277 283 290 296 299 301 302 304 308 313 314 312 310 313 314 313 314 314 315 315 312 309 307 307 305 305 303 302 301 300 299 299 299 298 294 290 289 288 286 283 283 283 283 285 284 283
250 260 270 277 285 292 295 297 300 302 304 308 309 312 310 308 310 310 309 310 311 312 311 309 306 305 305 304 303 303 301 299 297 297 299 299 298 295 293 291 288 286 284 282 282 283 282 281 281
252 262 272 280 287 292 294 298 301 303 303 305 306 307 307 306 308 307 306 307 308 308 307 304 303 303 302 301 301 300 299 298 297 296 296 297 295 293 294 288 286 286 284 282 281 281 279 278 276
261 268 274 280 285 289 293 296 300 302 303 304 304 306 305 304 306 305 306 307 306 306 305 302 300 299 300 300 301 301 299 298 296 294 292 295 294 291 290 290 288 287 286 283 281 279 278 277 276
265 271 275 280 283 288 291 296 300 301 302 303 303 303 303 306 306 304 304 306 305 303 303 301 299 298 299 301 300 299 298 296 294 295 292 292 291 289 288 290 291 288 288 283 280 279 278 276 276
270 275 276 280 284 289 293 296 300 302 303 302 303 303 304 305 305 305 306 308 307 305 304 302 301 299 297 297 299 298 298 296 294 294 296 295 292 288 288 288 290 288 287 283 278 278 277 276 276
278 279 280 284 289 291 295 298 300 301 303 304 304 304 305 305 305 305 306 307 307 307 304 301 301 300 298 297 298 298 296 295 293 293 294 295 292 288 287 287 287 286 285 281 278 275 274 274 274
283 283 287 290 293 294 296 298 299 302 304 306 306 305 306 307 306 305 305 306 306 307 307 305 303 303 301 300 299 298 297 295 294 295 294 294 292 289 290 289 287 285 283 281 280 276 273 273 273
287 289 291 295 297 297 296 298 300 302 303 305 305 305 305 306 305 306 306 306 307 308 306 306 304 303 301 301 301 297 297 297 295 294 293 293 292 291 290 288 287 284 282 280 280 280 275 273 273
291 294 295 296 297 297 296 297 300 302 304 304 303 305 306 306 306 307 307 307 306 306 305 305 305 303 303 301 300 297 297 296 294 293 291 290 290 291 289 286 284 282 281 281 280 279 276 273 273
294 294 295 296 297 298 298 298 301 303 304 304 305 307 309 308 307 307 307 307 308 307 305 304 305 304 303 303 300 298 296 295 293 291 290 289 289 289 288 288 283 281 281 281 280 279 278 275 273
295 295 296 297 299 300 301 301 302 303 304 305 306 309 309 309 308 308 307 306 307 307 307 306 307 309 306 302 300 300 301 296 293 289 289 289 288 287 287 288 288 284 281 281 282 280 278 279 277
296 296 297 299 300 300 302 302 304 305 307 307 306 308 309 309 309 309 309 308 307 307 307 307 309 310 310 307 305 301 302 298 295 293 292 291 289 288 289 290 291 289 286 285 284 283 282 281 278
296 298 299 300 300 301 303 303 306 309 310 308 308 308 310 311 311 311 311 310 308 308 308 307 308 309 310 309 307 305 303 301 297 295 295 294 293 289 288 290 290 290 287 284 284 283 281 280 280
297 300 301 302 303 303 304 305 307 308 309 308 307 308 309 310 311 311 311 311 310 310 309 307 306 307 308 308 308 306 304 303 301 299 297 296 295 294 291 289 290 290 288 285 285 282 281 280 281
301 301 303 303 303 304 306 307 308 309 308 308 309 309 308 309 310 311 311 311 311 310 309 308 305 305 306 308 309 308 305 303 301 300 300 299 298 295 291 291 292 291 290 289 290 287 285 283 281
302 302 302 304 305 307 309 310 312 314 312 311 310 309 308 309 310 311 311 311 310 309 308 308 307 306 306 307 307 308 306 304 301 301 302 301 300 297 293 291 290 290 291 291 289 290 289 286 285
306 304 304 306 307 309 311 313 315 315 315 313 311 310 309 308 310 311 311 310 310 309 309 307 306 305 304 306 309 309 308 307 306 304 302 301 301 300 298 295 294 294 293 291 292 292 291 290 290
312 311 309 308 311 311 312 314 315 314 315 316 315 314 311 310 311 310 310 310 310 309 309 310 308 305 305 306 308 308 308 308 306 303 302 301 300 300 302 301 298 298 297 296 295 292 293 293 293
Height
5886 5887 5889 5891 5892 5891 5890 5890 5890 5890 5890 5890 5889 5889 5888 5888 5888 5888 5885 5883 5882 5881 5879 5878 5877 5875 5874 5873 5872 5871 5870 5869 5868 5868 5867 5867 5866 5865 5865 5864 5864 5863 5862 5862 5862 5861 5861 5861 5861
5886 5888 5890 5891 5891 5890 5891 5890 5890 5890 5890 5889 5889 5888 5888 5887 5886 5885 5883 5882 5881 5880 5879 5877 5875 5874 5873 5872 5871 5869 5868 5867 5866 5866 5865 5864 5864 5863 5862 5862 5861 5860 5860 5859 5859 5858 5858 5858 5858
5886 5888 5890 5891 5890 5891 5891 5891 5890 5890 5890 5889 5889 5888 5887 5886 5885 5884 5882 5880 5879 5878 5877 5876 5874 5873 5872 5870 5869 5868 5867 5866 5865 5864 5863 5862 5861 5860 5859 5858 5858 5857 5856 5856 5855 5855 5855 5855 5855
5886 5888 5890 5891 5890 5891 5891 5891 5890 5889 5889 5889 5888 5887 5886 5885 5884 5882 5881 5879 5878 5877 5875 5874 5873 5871 5870 5869 5867 5866 5865 5864 5862 5861 5860 5859 5858 5857 5856 5855 5854 5853 5853 5852 5852 5851 5851 5851 5851
5886 5888 5889 5890 5890 5890 5890 5890 5890 5889 5889 5888 5887 5886 5885 5884 5882 5881 5880 5878 5877 5876 5874 5872 5871 5870 5868 5867 5865 5864 5863 5862 5860 5859 5858 5856 5855 5854 5853 5852 5851 5850 5849 5848 5848 5847 5847 5847 5847
5887 5888 5889 5889 5890 5890 5890 5890 5889 5888 5888 5887 5886 5886 5884 5883 5881 5879 5878 5877 5876 5874 5872 5870 5869 5867 5866 5865 5863 5862 5860 5859 5858 5856 5855 5853 5852 5851 5849 5848 5847 5846 5845 5844 5844 5843 5843 5842 5842
5887 5887 5888 5889 5889 5889 5889 5888 5888 5886 5886 5886 5885 5884 5883 5881 5879 5878 5877 5875 5874 5872 5870 5868 5866 5865 5864 5862 5861 5859 5857 5856 5855 5853 5852 5850 5849 5847 5846 5844 5843 5842 5842 5841 5840 5840 5839 5838 5838
5886 5888 5887 5888 5888 5888 5888 5887 5886 5886 5885 5885 5884 5882 5881 5880 5878 5876 5875 5873 5871 5869 5867 5865 5864 5862 5861 5859 5857 5856 5854 5853 5851 5850 5848 5847 5845 5844 5842 5841 5839 5838 5837 5836 5836 5835 5835 5834 5834
5886 5888 5886 5887 5886 5887 5886 5886 5886 5885 5884 5883 5882 5880 5879 5878 5876 5874 5873 5871 5869 5867 5865 5862 5861 5859 5857 5856 5854 5852 5851 5849 5848 5846 5845 5843 5841 5840 5838 5837 5835 5834 5833 5832 5831 5831 5830 5830 5829
5886 5886 5886 5886 5885 5885 5884 5884 5884 5883 5882 5881 5880 5878 5876 5875 5873 5872 5870 5868 5866 5864 5862 5859 5857 5856 5854 5852 5850 5849 5847 5845 5843 5842 5840 5838 5837 5835 5834 5832 5831 5830 5829 5828 5827 5826 5826 5825 5825
5884 5885 5885 5884 5884 5883 5883 5882 5882 5881 5880 5879 5878 5876 5874 5872 5870 5869 5867 5865 5863 5861 5859 5856 5854 5852 5850 5848 5847 5845 5843 5841 5839 5837 5835 5834 5832 5830 5829 5827 5826 5825 5824 5823 5822 5821 5821 5820 5820
5884 5884 5883 5883 5882 5882 5881 5880 5879 5878 5877 5876 5875 5873 5871 5868 5867 5865 5863 5861 5859 5857 5855 5853 5850 5848 5846 5844 5842 5840 5839 5836 5834 5832 5830 5829 5827 5826 5824 5822 5821 5820 5818 5818 5817 5816 5815 5815 5814
5883 5883 5882 5882 5881 5880 5879 5878 5877 5876 5874 5873 5872 5870 5868 5866 5863 5862 5860 5857 5855 5853 5851 5848 5846 5844 5841 5839 5837 5835 5834 5832 5829 5827 5825 5824 5822 5820 5819 5817 5816 5814 5813 5812 5811 5811 5810 5809 5809
5881 5881 5880 5880 5879 5878 5877 5876 5875 5873 5872 5870 5869 5866 5864 5861 5859 5857 5855 5853 5850 5848 5845 5843 5841 5839 5837 5834 5832 5830 5828 5826 5823 5822 5820 5818 5816 5814 5813 5812 5810 5809 5808 5806 5806 5805 5804 5804 5803
5880 5880 5879 5878 5877 5876 5875 5874 5872 5870 5868 5867 5865 5863 5860 5858 5855 5853 5851 5849 5846 5843 5840 5837 5836 5833 5831 5829 5826 5824 5822 5820 5818 5816 5814 5812 5810 5808 5807 5806 5804 5803 5802 5800 5799 5799 5798 5798 5797
5879 5879 5878 5877 5875 5873 5874 5871 5869 5867 5865 5863 5861 5859 5856 5853 5851 5848 5846 5844 5841 5838 5835 5832 5830 5827 5824 5822 5820 5818 5816 5814 5812 5810 5808 5806 5804 5802 5801 5800 5798 5797 5795 5794 5793 5793 5793 5792 5791
5877 5877 5876 5875 5873 5871 5870 5868 5866 5863 5862 5859 5857 5854 5852 5849 5846 5843 5840 5838 5835 5832 5829 5826 5823 5821 5818 5816 5814 5812 5809 5807 5805 5803 5801 5799 5797 5796 5795 5793 5792 5790 5789 5788 5787 5787 5786 5786 5785
5876 5874 5873 5872 5870 5868 5866 5864 5862 5860 5858 5855 5853 5850 5847 5844 5841 5838 5835 5832 5830 5826 5823 5820 5817 5814 5812 5810 5807 5805 5803 5801 5798 5796 5794 5792 5791 5789 5788 5786 5785 5783 5782 5781 5780 5780 5779 5779 5779
5873 5871 5870 5868 5866 5864 5862 5860 5858 5856 5853 5851 5849 5846 5843 5840 5837 5833 5830 5827 5824 5821 5818 5814 5811 5808 5806 5803 5801 5799 5796 5794 5792 5790 5788 5786 5784 5782 5780 5779 5778 5777 5775 5774 5774 5773 5773 5772 5772
5870 5868 5866 5865 5863 5860 5858 5856 5854 5852 5850 5847 5845 5842 5839 5836 5832 5828 5825 5822 5818 5815 5812 5808 5805 5802 5799 5796 5794 5792 5790 5787 5785 5782 5781 5779 5777 5776 5774 5772 5771 5770 5768 5767 5767 5766 5765 5765 5765
5867 5865 5863 5861 5859 5856 5854 5852 5850 5848 5845 5843 5840 5837 5834 5830 5827 5823 5820 5816 5813 5809 5806 5803 5799 5796 5793 5790 5787 5785 5783 5780 5778 5776 5774 5772 5771 5769 5767 5765 5764 5763 5761 5761 5760 5759 5758 5758 5758
5864 5862 5860 5857 5855 5853 5852 5848 5847 5844 5841 5838 5835 5832 5828 5825 5821 5818 5814 5811 5807 5803 5800 5796 5793 5790 5787 5784 5780 5777 5775 5773 5771 5769 5767 5765 5764 5762 5761 5759 5758 5756 5755 5754 5753 5752 5751 5750 5750
5860 5858 5856 5854 5851 5849 5847 5845 5843 5840 5837 5834 5831 5827 5824 5820 5816 5812 5809 5805 5801 5798 5794 5791 5787 5784 5780 5777 5774 5770 5767 5765 5763 5762 5760 5758 5757 5755 5754 5752 5751 5750 5749 5748 5746 5745 5744 5743 5742
5856 5854 5852 5850 5848 5846 5843 5841 5838 5836 5833 5829 5826 5823 5819 5815 5811 5807 5803 5799 5795 5792 5788 5785 5781 5777 5774 5770 5767 5764 5761 5758 5756 5755 5753 5751 5750 5748 5747 5746 5745 5744 5742 5741 5740 5739 5738 5737 5736
5852 5850 5848 5845 5843 5842 5839 5836 5834 5831 5828 5824 5821 5818 5814 5809 5805 5802 5798 5794 5790 5786 5782 5779 5775 5771 5768 5765 5761 5758 5755 5751 5749 5748 5746 5745 5743 5742 5741 5740 5738 5737 5736 5735 5733 5732 5730 5730 5729
5847 5846 5844 5841 5838 5837 5834 5831 5830 5826 5823 5819 5816 5812 5808 5804 5800 5796 5792 5788 5784 5780 5776 5772 5769 5765 5762 5759 5755 5752 5749 5746 5744 5742 5741 5739 5737 5736 5735 5734 5733 5731 5730 5728 5726 5725 5724 5723 5722
5842 5840 5839 5836 5833 5831 5829 5827 5825 5821 5818 5814 5810 5807 5803 5798 5794 5790 5786 5782 5777 5773 5769 5765 5762 5759 5756 5752 5749 5746 5744 5741 5739 5737 5735 5733 5732 5730 5729 5728 5727 5725 5724 5722 5720 5719 5717 5716 5716
5838 5836 5834 5831 5828 5825 5824 5822 5819 5815 5812 5808 5804 5800 5796 5792 5788 5784 5780 5776 5771 5767 5763 5759 5756 5753 5750 5747 5744 5741 5738 5735 5733 5731 5729 5727 5726 5725 5724 5723 5721 5719 5717 5716 5714 5713 5711 5710 5709
5834 5832 5829 5827 5824 5821 5817 5818 5814 5810 5806 5802 5799 5794 5790 5787 5782 5778 5774 5769 5765 5761 5757 5753 5750 5747 5744 5741 5739 5736 5732 5729 5727 5725 5723 5722 5721 5720 5718 5717 5715 5713 5712 5710 5709 5707 5706 5704 5703
5830 5827 5825 5823 5820 5816 5813 5814 5809 5805 5801 5797 5793 5789 5785 5781 5776 5772 5768 5763 5758 5754 5751 5747 5744 5741 5738 5736 5733 5730 5727 5724 5722 5720 5719 5718 5716 5715 5713 5712 5710 5708 5706 5705 5703 5702 5700 5699 5697